TimeCST,TemperatureF,Dew PointF,Humidity,Sea Level PressureIn,VisibilityMPH,Wind Direction,Wind SpeedMPH,Gust SpeedMPH,PrecipitationIn,Events,Conditions,WindDirDegrees,DateUTC
12:53 AM,61.0,59.0,93,30.14,4.0,East,9.2,-,0.05,Rain,Light Rain,90,2013-01-09 06:53:00
1:53 AM,62.1,60.1,93,30.13,5.0,East,10.4,17.3,0.16,Rain,Light Rain,90,2013-01-09 07:53:00
2:53 AM,62.1,60.1,93,30.11,4.0,East,11.5,-,0.27,Rain,Rain,90,2013-01-09 08:53:00
3:53 AM,62.1,60.1,93,30.08,6.0,East,12.7,-,0.12,Rain,Light Rain,100,2013-01-09 09:53:00
4:53 AM,62.1,60.1,93,30.09,10.0,East,8.1,-,0.01,,Overcast,90,2013-01-09 10:53:00
5:53 AM,62.1,60.1,93,30.11,7.0,East,4.6,-,N/A,,Overcast,80,2013-01-09 11:53:00
6:25 AM,62.6,60.8,94,30.10,8.0,East,5.8,-,0.00,,Overcast,90,2013-01-09 12:25:00
6:53 AM,62.6,60.8,94,30.11,7.0,ENE,4.6,-,N/A,,Overcast,60,2013-01-09 12:53:00
7:19 AM,64.4,60.8,88,30.12,6.0,East,9.2,-,N/A,,Overcast,90,2013-01-09 13:19:00
7:53 AM,64.9,63.0,93,30.14,6.0,ESE,9.2,-,N/A,,Overcast,110,2013-01-09 13:53:00
8:37 AM,66.2,62.6,88,30.15,6.0,ESE,8.1,-,N/A,,Overcast,110,2013-01-09 14:37:00
8:53 AM,66.0,63.0,90,30.17,5.0,East,6.9,-,N/A,,Overcast,100,2013-01-09 14:53:00
9:53 AM,66.0,63.0,90,30.19,4.0,East,6.9,-,N/A,,Overcast,80,2013-01-09 15:53:00
10:53 AM,64.9,63.0,93,30.18,3.0,East,8.1,-,N/A,,Overcast,90,2013-01-09 16:53:00
11:53 AM,64.9,63.0,93,30.15,3.0,East,5.8,17.3,N/A,,Overcast,80,2013-01-09 17:53:00
12:18 PM,64.4,62.6,94,30.13,2.5,East,10.4,-,N/A,,Overcast,80,2013-01-09 18:18:00
12:53 PM,64.9,63.0,93,30.12,1.2,East,11.5,-,N/A,,Overcast,90,2013-01-09 18:53:00
1:53 PM,66.0,64.0,93,30.12,1.2,East,10.4,18.4,N/A,,Overcast,90,2013-01-09 19:53:00
2:04 PM,66.2,64.4,94,30.10,1.2,East,11.5,-,N/A,,Overcast,100,2013-01-09 20:04:00
2:11 PM,66.2,64.4,94,30.10,2.0,East,10.4,-,N/A,,Overcast,100,2013-01-09 20:11:00
2:53 PM,66.9,64.0,90,30.11,2.0,East,9.2,-,N/A,,Overcast,90,2013-01-09 20:53:00
3:53 PM,66.0,63.0,90,30.12,2.0,East,10.4,-,N/A,,Overcast,90,2013-01-09 21:53:00
4:20 PM,64.4,62.6,94,30.10,1.5,East,13.8,19.6,N/A,,Overcast,90,2013-01-09 22:20:00
4:30 PM,64.4,62.6,94,30.10,0.8,East,12.7,20.7,N/A,,Overcast,100,2013-01-09 22:30:00
4:53 PM,64.0,63.0,96,30.12,0.5,East,9.2,-,N/A,,Overcast,90,2013-01-09 22:53:00
5:05 PM,64.4,62.6,94,30.12,0.2,East,10.4,-,N/A,Fog,Fog,90,2013-01-09 23:05:00
5:53 PM,64.0,63.0,96,30.14,0.2,East,9.2,-,N/A,Fog,Fog,90,2013-01-09 23:53:00
6:32 PM,64.4,62.6,94,30.14,0.2,East,9.2,-,N/A,Fog,Fog,80,2013-01-10 00:32:00
6:53 PM,64.0,63.0,96,30.16,0.2,East,10.4,-,N/A,Fog,Fog,80,2013-01-10 00:53:00
7:53 PM,64.0,63.0,96,30.17,0.2,East,6.9,-,N/A,,Overcast,100,2013-01-10 01:53:00
8:53 PM,64.9,64.0,97,30.17,0.2,East,6.9,-,N/A,,Overcast,90,2013-01-10 02:53:00
9:53 PM,64.9,64.0,97,30.17,0.2,East,5.8,-,0.01,,Overcast,100,2013-01-10 03:53:00
10:53 PM,66.0,64.9,96,30.18,0.2,East,5.8,-,N/A,,Mist,100,2013-01-10 04:53:00
11:53 PM,68.0,66.9,96,30.15,0.2,ESE,11.5,-,N/A,,Overcast,110,2013-01-10 05:53:00